#timestamp,LO_Frequency,Hit,StdDev 
1584387395.1,286047079.6,P
1584387396.0,286047079.6,P
1584387415.8,286047078.3,P
1584387435.6,286047081.2,Y
1584387455.5,286047001.1,P
1584387475.3,286047000.6,N
1584387495.2,286047000.4,N
1584387515.9,286047000.0,N
1584387535.7,286047002.8,N
1584387555.6,286047003.9,N
1584387575.4,286047001.4,N
1584387595.2,286047004.3,N
1584387615.1,286047001.7,N
1584387616.0,286047001.7,N
1584387635.8,286047004.3,N
1584387655.7,286047004.3,N
1584387675.5,286047003.4,N
1584387695.3,286047005.2,N
1584387715.2,286047007.5,N
1584387735.0,286047007.1,N
1584387735.9,286047007.1,N
1584387755.7,286047006.5,N
1584387775.6,286047006.5,N
1584387795.4,286047008.8,N
1584387815.3,286047010.7,N
1584387835.1,286047007.7,N
1584387836.0,286047007.7,N
1584387855.8,286047010.3,N
1584387875.7,286047010.0,N
1584387895.5,286047009.8,N
1584387915.3,286047014.0,N
1584387935.2,286047011.4,N
1584387955.0,286047011.1,N
1584387955.9,286047011.1,N
1584387975.8,286047012.9,Y
1584387995.6,286047006.1,P
1584388015.4,286047008.3,P
1584388035.3,286047008.5,P
1584388055.1,286047010.7,Y
1584388075.9,286047003.9,P
1584388095.7,286047004.2,N
1584388115.5,286047003.1,N
1584388135.4,286047005.7,Y
1584388155.2,286047000.6,P
1584388175.1,286046998.2,N
1584388176.0,286046998.2,N
1584388195.8,286046999.3,N
1584388215.6,286046998.4,N
1584388235.5,286046999.2,N
1584388255.3,286046996.5,N
1584388275.1,286046999.3,N
1584388295.9,286046998.9,N
1584388315.7,286046998.1,N
1584388335.6,286047000.7,N
1584388355.4,286047000.3,N
1584388375.2,286046999.7,N
1584388395.1,286047001.5,N
1584388396.0,286047001.5,N
1584388415.8,286047004.1,N
1584388435.6,286047003.9,N
1584388455.5,286047004.1,N
1584388475.3,286047005.9,N
1584388495.2,286047005.5,N
1584388515.9,286047003.0,N
1584388535.7,286047007.5,N
1584388555.6,286047004.8,N
1584388575.4,286047007.5,N
1584388595.2,286047007.2,N
1584388615.1,286047007.3,N
1584388616.0,286047007.3,N
1584388635.8,286047006.6,N
1584388655.7,286047008.4,N
1584388675.5,286047008.0,N
1584388695.3,286047008.7,N
1584388715.2,286047009.0,N
1584388735.0,286047008.9,N
1584388735.9,286047008.9,N
1584388755.7,286047006.5,N
1584388775.6,286047006.6,N
1584388795.4,286047008.8,N
